Location: Starlight Observatory
(38.4029°N, 85.8936°W)
Time: 05:16:48
(UTC-04:00)

Iridium 62 - Visible Passes

Search period start: 30 July 2016 00:00
Search period end: 09 August 2016 00:00
Orbit: 776 x 779 km, 86.4° (Epoch: 29 July)

Date Brightness Start Highest point End Pass type
(mag) Time Alt. Az. Time Alt. Az. Time Alt. Az.
30 Jul 6.0 05:01:09 13° S 05:05:47 74° E 05:11:01 10° N visible
31 Jul 7.0 04:28:12 13° SSE 04:32:23 39° E 04:37:12 10° NNE visible
31 Jul 7.1 06:09:15 10° SW 06:13:13 22° WNW 06:17:13 10° NNW visible
01 Aug 8.0 03:55:17 10° SE 03:59:07 21° E 04:02:56 10° NNE visible
01 Aug 6.3 05:35:43 16° SSW 05:39:30 40° W 05:44:24 10° NNW visible
02 Aug 8.5 03:24:39 10° E 03:25:57 11° ENE 03:27:15 10° ENE visible
02 Aug 5.7 05:02:43 24° S 05:05:53 76° W 05:11:08 10° N visible
03 Aug 6.3 04:29:41 27° SSE 04:32:25 57° E 04:37:32 10° N visible
03 Aug 7.5 06:10:35 10° WSW 06:13:31 15° WNW 06:16:28 10° NW visible
04 Aug 7.4 03:56:39 21° SE 03:59:04 30° E 04:03:34 10° NNE visible
04 Aug 6.8 05:37:08 19° WSW 05:39:43 28° W 05:44:10 10° NNW visible
05 Aug 8.1 03:23:34 13° ESE 03:25:50 16° E 03:28:59 10° NE visible
05 Aug 6.0 05:04:05 34° SW 05:06:02 51° W 05:11:08 10° N visible
06 Aug 5.8 04:30:59 48° S 04:32:29 84° E 04:37:43 10° N visible
07 Aug 6.7 03:57:54 38° ESE 03:59:04 44° E 04:04:00 10° NNE visible
07 Aug 7.3 05:38:23 17° W 05:39:59 19° WNW 05:43:41 10° NNW visible
08 Aug 7.6 03:24:47 23° E 03:25:45 24° E 03:29:51 10° NNE visible
08 Aug 6.5 05:05:16 32° WSW 05:06:14 35° W 05:11:00 10° NNW visible
